Tracking 18843 objects as of 21-November-2017
HD Live streaming from Space Station
objects crossing your sky now

FENGYUN 1C DEB

Track FENGYUN 1C DEB now!
10-day predictions


NORAD ID: 30639
Int'l Code: 1999-025ANW
Perigee: 806.4 km
Apogee: 937.5 km
Inclination: 99.1 °
Period: 102.2 minutes
Semi major axis: 7242 km
RCS: 0.025 m2 (small)
Launch date: May 10, 1999
Source: People's Republic of China (PRC)
Launch site: Taiyaun Space Center, China (TSC)

Note: This is SATELLITE DEBRIS
aabbcc
Your satellite tracking list
Your tracking list is empty




NASA's NSSDC Master Catalog

Two Line Element Set (TLE):
1 30639U 99025ANW 17324.77509996  .00001167  00000-0  68219-3 0  9999
2 30639  99.1085 357.4839 0090472 316.4514  42.9536 14.08408761551683
Source of the keplerian elements: AFSPC